This is the latest recevied weather packets stored in our database for station/object K6CED. If no packets are shown the sender has not sent any weather packets the latest 10 day(s).
| Time | Temp. | Humidity | Pressure | Rain* | Wind** | Luminosity | Snow |
|---|---|---|---|---|---|---|---|
| 1788287307 | 28.33° C | 32% | 1018.4 hPa | 0 mm | - | 813 W/m² | - |
| 1788287005 | 28.33° C | 33% | 1018.5 hPa | 0 mm | - | 807 W/m² | - |
| 1788286700 | 28.33° C | 35% | 1018.2 hPa | 0 mm | - | 797 W/m² | - |
| 1788286395 | 28.33° C | 42% | 1018.5 hPa | 0 mm | - | 786 W/m² | - |
| 1788286089 | 27.78° C | 45% | 1018.5 hPa | 0 mm | - | 779 W/m² | - |
| 1788285789 | 27.78° C | 43% | 1018.4 hPa | 0 mm | - | 771 W/m² | - |
| 1788285487 | 27.22° C | 46% | 1018.6 hPa | 0 mm | - | 763 W/m² | - |
| 1788285183 | 26.67° C | 46% | 1018.6 hPa | 0 mm | - | 750 W/m² | - |
| 1788284877 | 26.67° C | 47% | 1018.5 hPa | 0 mm | - | 735 W/m² | - |
| 1788284576 | 27.22° C | 45% | 1018.4 hPa | 0 mm | - | 724 W/m² | - |
| 1788284269 | 27.22° C | 47% | 1018.6 hPa | 0 mm | - | 708 W/m² | - |
| 1788283968 | 26.11° C | 48% | 1018.6 hPa | 0 mm | - | 694 W/m² | - |
| 1788283665 | 26.11° C | 47% | 1018.7 hPa | 0 mm | - | 682 W/m² | - |
| 1788283364 | 26.11° C | 47% | 1018.4 hPa | 0 mm | - | 673 W/m² | - |
| 1788283062 | 25.56° C | 49% | 1018.6 hPa | 0 mm | - | 661 W/m² | - |
| 1788282761 | 25° C | 50% | 1018.6 hPa | 0 mm | - | 648 W/m² | - |
| 1788282460 | 25.56° C | 49% | 1018.6 hPa | 0 mm | - | 637 W/m² | - |
| 1788282155 | 24.44° C | 51% | 1018.6 hPa | 0 mm | - | 624 W/m² | - |
| 1788281855 | 24.44° C | 52% | 1018.5 hPa | 0 mm | - | 605 W/m² | - |
| 1788281555 | 25° C | 51% | 1018.5 hPa | 0 mm | - | 589 W/m² | - |
| 1788281251 | 25° C | 51% | 1018.4 hPa | 0 mm | - | 573 W/m² | - |
| 1788280947 | 24.44° C | 51% | 1018.4 hPa | 0 mm | - | 556 W/m² | - |
| 1788280642 | 23.89° C | 51% | 1018.5 hPa | 0 mm | - | 543 W/m² | - |
| 1788280341 | 22.78° C | 54% | 1018.4 hPa | 0 mm | - | 532 W/m² | - |
| 1788280036 | 22.78° C | 53% | 1018.5 hPa | 0 mm | - | 523 W/m² | - |
* Rain latest hour (hover to see other rain measurements)
** Current wind speed in m/s (hover to see current wind gust speed)